Location: Fort Worth, Tx
(32.7431°N, 97.3695°W)
Time: 06:40:57
(UTC-04:00)

Vanguard 1 Rocket - Pass Details

Date: 27 February 2024
Orbit: 652 x 4219 km, 34.3° (Epoch: 22 April)

Event Time Altitude Azimuth Distance (km) Brightness Sun altitude
Exits shadow 03:23:15 - 178° (S) 8,066 12.0 -56.3°
Reaches altitude 10° 03:34:23 10° 156° (SSE) 7,407 11.9 -54.5°
Maximum altitude 03:43:27 13° 134° (SE) 7,088 11.9 -52.9°
Drops below altitude 10° 03:52:00 10° 114° (ESE) 7,052 12.1 -51.4°
Sets 04:02:03 0° 91° (E) 7,439 12.6 -49.6°
